This demonstration page uses our WeatherBlox Daily Observations layout. Learn more.

Left ArrowRight Arrow

Hourly Observations for November 5, 2015

Temp ( °F °C ) Dew Point ( °F °C ) Humidity (%) Winds ( mph kmh ) Pressure ( in mb ) Visibility ( mi km ) Precip ( " mm )
12:53 am 00:53 Cloudy 65 18.3 62 16.7 90 90 ENE 5 7 30.22 1024 10 16 0.00 0.00
1:53 am 01:53 Cloudy 65 18.3 62 16.7 90 90 E 5 7 30.22 1023 10 16 0.00 0.00
2:31 am 02:31 Cloudy 65 18.3 62 16.7 90 90 ENE 5 7 30.21 1023 10 16 0.00 0.00
2:53 am 02:53 Cloudy 65 18.3 62 16.7 90 90 E 5 7 30.22 1023 10 16 0.00 0.00
3:14 am 03:14 Cloudy 64 17.8 62 16.7 93 93 ENE 3 6 30.21 1023 10 16 0.00 0.00
3:41 am 03:41 Cloudy 64 17.8 62 16.7 93 93 E 3 6 30.21 1023 8 13 0.00 0.00
3:53 am 03:53 Cloudy 64 17.8 62 16.7 93 93 E 5 7 30.21 1023 10 16 0.00 0.00
4:53 am 04:53 Cloudy 64 17.8 61 16.1 90 90 E 9 15 30.21 1023 8 13 0.00 0.00
5:53 am 05:53 Cloudy with Mist and Fog 64 17.8 61 16.1 90 90 E 3 6 30.22 1023 5 8 0.00 0.00
6:35 am 06:35 Cloudy with Light Rain 63 17.2 61 16.1 93 93 E 5 7 30.21 1023 5 8 0.04 1.02
6:53 am 06:53 Cloudy with Light Rain 63 17.2 61 16.1 93 93 NE 5 7 30.24 1024 5 8 0.05 1.27
7:42 am 07:42 Cloudy with Light Rain 63 17 61 16 94 94 E 9 15 30.21 1023 3 4 0.00 0.00
7:53 am 07:53 Cloudy with Light Rain 63 17.2 61 16.1 93 93 ENE 6 9 30.24 1024 4 6 0.01 0.25
8:53 am 08:53 Cloudy with Mist and Fog 64 17.8 62 16.7 93 93 NE 5 7 30.26 1025 3 5 0.01 0.25
9:53 am 09:53 Cloudy with Mist and Fog 65 18.3 62 16.7 90 90 Calm 30.27 1025 5 8 0.00 0.00
10:53 am 10:53 Cloudy with Mist and Fog 65 18.3 62 16.7 90 90 Calm 30.26 1025 5 8 0.00 0.03
11:53 am 11:53 Cloudy with Mist and Fog 65 18.3 63 17.2 93 93 E 6 9 30.24 1024 6 10 0.00 0.03
12:53 pm 12:53 Cloudy with Light Rain 66 18.9 63 17.2 90 90 E 5 7 30.22 1023 10 16 0.00 0.03
1:53 pm 13:53 Cloudy 66 18.9 63 17.2 90 90 E 5 7 30.20 1023 10 16 0.00 0.03
2:38 pm 14:38 Cloudy with Mist and Fog 66 19 64 18 94 94 E 5 7 30.18 1022 2 3 0.00 0.00
2:53 pm 14:53 Cloudy with Light Rain 66 18.9 64 17.8 93 93 Calm 30.19 1022 2 2 0.00 0.03
3:05 pm 15:05 Cloudy with Light Rain 66 18.9 64 17.8 93 93 ENE 3 6 30.18 1022 2 3 0.01 0.25
3:09 pm 15:09 Cloudy with Light Rain 66 18.9 64 17.8 93 93 Calm 30.18 1022 3 5 0.01 0.25
3:53 pm 15:53 Cloudy 67 19.4 64 17.8 91 91 Calm 30.19 1023 10 16 0.02 0.51
4:53 pm 16:53 Cloudy 67 19.4 64 17.8 91 91 E 5 7 30.19 1022 10 16 0.00 0.00
5:35 pm 17:35 Cloudy with Mist and Fog 66 18.9 64 17.8 93 93 Calm 30.18 1022 4 6 0.00 0.00
5:53 pm 17:53 Cloudy with Mist and Fog 66 18.9 64 17.8 93 93 VRB 3 6 30.19 1022 3 5 0.00 0.00
6:53 pm 18:53 Cloudy with Mist and Fog 66 18.9 64 17.8 93 93 E 3 6 30.20 1023 4 6 0.00 0.00
7:53 pm 19:53 Cloudy with Mist and Fog 66 18.9 64 17.8 93 93 E 5 7 30.19 1022 4 6 0.00 0.00
8:53 pm 20:53 Cloudy with Mist and Fog 66 18.9 64 17.8 93 93 E 7 11 30.18 1022 6 10 0.00 0.00
9:25 pm 21:25 Cloudy with Mist and Fog 66 18.9 64 17.8 93 93 Calm 30.18 1022 4 6 0.00 0.00
9:53 pm 21:53 Cloudy with Mist and Fog 66 18.9 64 17.8 93 93 Calm 30.18 1022 6 10 0.00 0.00
10:53 pm 22:53 Cloudy with Mist and Fog 66 18.9 64 17.8 93 93 Calm 30.17 1022 4 6 0.00 0.00
11:05 pm 23:05 Cloudy with Mist and Fog 66 18.9 64 17.8 93 93 Calm 30.18 1022 2 3 0.00 0.00
11:53 pm 23:53 Cloudy with Mist and Fog 66 18.9 64 17.8 93 93 Calm 30.17 1022 2 3 0.00 0.00

Powered by AerisWeather